This is the latest recevied weather packets stored in our database for station/object SQ9RHX-13. If no packets are shown the sender has not sent any weather packets the latest 10 day(s).
| Time | Temp. | Humidity | Pressure | Rain* | Wind** | Luminosity | Snow |
|---|---|---|---|---|---|---|---|
| 1777866003 | 11.11° C | 62% | 1017.2 hPa | 0 mm | - | 8 W/m² | - |
| 1777865705 | 11.11° C | 64% | 1017.5 hPa | 0 mm | - | 6 W/m² | - |
| 1777865402 | 11.67° C | 62% | 1017.4 hPa | 0 mm | - | 4 W/m² | - |
| 1777865104 | 11.67° C | 62% | 1017.2 hPa | 0 mm | - | 2 W/m² | - |
| 1777864804 | 11.67° C | 60% | 1017.2 hPa | 0 mm | - | 2 W/m² | - |
| 1777864504 | 12.22° C | 59% | 1017.2 hPa | 0 mm | - | 1 W/m² | - |
| 1777864203 | 12.78° C | 57% | 1017.1 hPa | 0 mm | - | 0 W/m² | - |
| 1777863904 | 13.33° C | 56% | 1017 hPa | 0 mm | - | 0 W/m² | - |
| 1777863603 | 13.89° C | 53% | 1016.8 hPa | 0 mm | - | 0 W/m² | - |
| 1777863305 | 13.89° C | 50% | 1016.6 hPa | 0 mm | - | 0 W/m² | - |
| 1777863004 | 14.44° C | 49% | 1016.4 hPa | 0 mm | - | 0 W/m² | - |
| 1777862703 | 14.44° C | 49% | 1016.5 hPa | 0 mm | - | 0 W/m² | - |
| 1777862403 | 14.44° C | 48% | 1016.4 hPa | 0 mm | - | 0 W/m² | - |
| 1777862103 | 15° C | 48% | 1016.4 hPa | 0 mm | - | 0 W/m² | - |
| 1777861804 | 15° C | 47% | 1016.5 hPa | 0 mm | - | 0 W/m² | - |
| 1777861504 | 15.56° C | 46% | 1016.5 hPa | 0 mm | - | 0 W/m² | - |
| 1777861203 | 15.56° C | 45% | 1016.6 hPa | 0 mm | - | 0 W/m² | - |
| 1777860903 | 16.11° C | 45% | 1016.5 hPa | 0 mm | - | 0 W/m² | - |
| 1777860603 | 16.11° C | 44% | 1016.4 hPa | 0 mm | - | 0 W/m² | - |
| 1777860303 | 16.11° C | 44% | 1016.3 hPa | 0 mm | - | 0 W/m² | - |
| 1777860004 | 16.11° C | 44% | 1016.7 hPa | 0 mm | - | 0 W/m² | - |
| 1777859702 | 16.11° C | 43% | 1016.5 hPa | 0 mm | - | 0 W/m² | - |
| 1777859405 | 16.11° C | 44% | 1016.4 hPa | 0 mm | - | 0 W/m² | - |
| 1777859103 | 16.67° C | 43% | 1016.6 hPa | 0 mm | - | 0 W/m² | - |
| 1777858805 | 16.67° C | 43% | 1016.4 hPa | 0 mm | - | 0 W/m² | - |
* Rain latest hour (hover to see other rain measurements)
** Current wind speed in m/s (hover to see current wind gust speed)